Flag for Mexico Weather past 2 weeks in Matamoros, Tamaulipas, Mexico

Now
81 °F

Clear.


Feels Like: 85 °F
Forecast: 72 / 88 °F
Wind: 7 mph from Southeast

Location: Brownsville / South Padre Island International Airport

Current Time: Aug 29, 2015 at 11:07:48 PM

Latest Report: Aug 29, 2015 at 9:53 PM


Visibility: 10 mi

Pressure: 29.96 "Hg

Humidity: 74%

Dew point: 72 °F

Location of MatamorosLocation

Historic Weather in Matamoros — Graph

°F

Matamoros temperature yesterday

Maximum temperature yesterday: 91 °F (at 1:53 PM)
Minimum temperature yesterday: 72 °F (at 6:53 AM)
Average temperature yesterday: 81 °F

Past Weeks' High & Low Weather Summary

 TemperatureHumidityPressure
High97 °F (Aug 25, 1:53 PM)100% (Aug 22, 7:53 AM)30.09 "Hg (Aug 22, 7:53 AM)
Low68 °F (Aug 29, 5:53 AM)39% (Aug 27, 4:53 PM)29.70 "Hg (Aug 19, 6:53 PM)
Average83 °F77%29.93 "Hg
* Reported Aug 14 9:53 PM — Aug 29 9:53 PM, Matamoros, Weather by CustomWeather, © 2015

Note: Actual official high and low records may vary slightly from our data, if they occured in-between our weather recording intervals... More about our weather records

Advertising

Matamoros weather history for previous 24 hours

 ConditionsComfort  
Time TempWeatherWind HumidityBarometerVisibility
9:53 PM
Sat, Aug 29
81 °FClear.7 mph74%29.96 "Hg10 mi
8:53 PM81 °FClear.9 mph74%29.94 "Hg10 mi
7:53 PM83 °FSunny.10 mph70%29.94 "Hg10 mi
6:53 PM85 °FPassing clouds.10 mph63%29.93 "Hg10 mi
5:53 PM87 °FPassing clouds.15 mph59%29.93 "Hg10 mi
4:53 PM88 °FPassing clouds.14 mph55%29.93 "Hg10 mi
3:53 PM92 °FSunny.16 mph49%29.94 "Hg10 mi
2:53 PM88 °FMostly cloudy.13 mph54%29.97 "Hg10 mi
1:53 PM88 °FPartly sunny.9 mph52%29.98 "Hg10 mi
12:53 PM91 °FPassing clouds.3 mph44%29.99 "Hg10 mi
11:53 AM90 °FPartly sunny.5 mph48%30.01 "Hg10 mi
10:53 AM85 °FScattered clouds.5 mph57%30.01 "Hg10 mi
9:53 AM86 °FSunny.5 mph55%30.01 "Hg10 mi
8:53 AM81 °FSunny.3 mph67%30.00 "Hg10 mi
7:53 AM71 °FClear.3 mph87%29.98 "Hg10 mi
6:53 AM68 °FClear.3 mph90%29.97 "Hg10 mi
5:53 AM68 °FClear.3 mph93%29.97 "Hg10 mi
4:53 AM69 °FClear.3 mph87%29.97 "Hg10 mi
3:53 AM69 °FClear.No wind87%29.97 "Hg10 mi
1:53 AM72 °FClear.No wind81%29.98 "Hg10 mi
12:53 AM73 °FClear.5 mph79%29.98 "Hg10 mi
11:53 PM
Fri, Aug 28
75 °FClear.5 mph76%29.99 "Hg10 mi
Weather by CustomWeather, © 2015

See weather overviewHow to use our weather pages